AAL305 KEYW-KDFW

Flight info

Callsign AAL305
Flight time N/A
Altitude 36000
Route BUFTT1 GUFFS THMPR Y290 BACCA ROZZI Y280 REDFN EYEKO HRV PNUTS WHINY4
Aircraft B738/M-SDE2E3FGHIRWXY/LB1

Departure

Time 2026-05-06 16:05
Airport Key West International Airport (KEYW)

Arrival

Time N/A
Airport Dallas Fort Worth International Airport (KDFW)
Time Latitude Longitude Altitude Speed Heading
2026-05-06 15:42 24.55472 -81.75559 8 ft 0 kts 223°
2026-05-06 15:56 24.55476 -81.75554 8 ft 2 kts 223°
2026-05-06 15:56 24.55487 -81.75543 8 ft 2 kts 223°
2026-05-06 15:57 24.55498 -81.75532 8 ft 2 kts 223°
2026-05-06 15:57 24.55504 -81.75518 8 ft 2 kts 276°
2026-05-06 15:57 24.55503 -81.75502 8 ft 2 kts 267°
2026-05-06 15:57 24.55503 -81.75498 8 ft 0 kts 266°
2026-05-06 16:00 24.55503 -81.75499 8 ft 0 kts 264°
2026-05-06 16:00 24.55503 -81.75500 8 ft 0 kts 264°
2026-05-06 16:01 24.55502 -81.75508 8 ft 2 kts 264°
2026-05-06 16:01 24.55499 -81.75539 8 ft 5 kts 264°
2026-05-06 16:01 24.55516 -81.75587 8 ft 8 kts 307°
2026-05-06 16:01 24.55529 -81.75663 8 ft 12 kts 268°
2026-05-06 16:02 24.55526 -81.75774 8 ft 16 kts 268°
2026-05-06 16:02 24.55523 -81.75918 8 ft 20 kts 269°
2026-05-06 16:02 24.55522 -81.76090 8 ft 24 kts 269°
2026-05-06 16:02 24.55521 -81.76289 8 ft 27 kts 269°
2026-05-06 16:03 24.55520 -81.76502 8 ft 20 kts 269°
2026-05-06 16:03 24.55520 -81.76620 8 ft 12 kts 276°
2026-05-06 16:03 24.55578 -81.76671 8 ft 11 kts 358°
2026-05-06 16:03 24.55608 -81.76638 8 ft 0 kts 86°
2026-05-06 16:04 24.55609 -81.76632 8 ft 6 kts 86°
2026-05-06 16:04 24.55609 -81.76217 8 ft 102 kts 89°
2026-05-06 16:04 24.55623 -81.75131 24 ft 179 kts 91°
2026-05-06 16:05 24.55647 -81.73717 773 ft 196 kts 86°
2026-05-06 16:05 24.55996 -81.72377 1943 ft 176 kts 63°
2026-05-06 16:05 24.56792 -81.71419 2451 ft 185 kts 26°
2026-05-06 16:05 24.58096 -81.71310 2988 ft 201 kts 342°
2026-05-06 16:06 24.59402 -81.71962 3638 ft 211 kts 337°
2026-05-06 16:06 24.60841 -81.72437 4197 ft 228 kts 353°
2026-05-06 16:06 24.62497 -81.72502 4845 ft 245 kts
2026-05-06 16:06 24.64234 -81.72356 5595 ft 257 kts
2026-05-06 16:07 24.66045 -81.72173 6365 ft 268 kts
2026-05-06 16:07 24.67915 -81.72004 7251 ft 274 kts
2026-05-06 16:07 24.69813 -81.71851 8193 ft 276 kts
2026-05-06 16:07 24.71738 -81.71701 9109 ft 279 kts
2026-05-06 16:08 24.73655 -81.71553 10038 ft 280 kts
2026-05-06 16:08 24.75616 -81.71401 10813 ft 288 kts
2026-05-06 16:08 24.77667 -81.71239 11392 ft 302 kts
2026-05-06 16:08 24.79822 -81.71068 11934 ft 316 kts
2026-05-06 16:09 24.82047 -81.70892 12493 ft 330 kts
2026-05-06 16:09 24.84404 -81.70705 12975 ft 344 kts
2026-05-06 16:09 24.86818 -81.70513 13429 ft 357 kts
2026-05-06 16:09 24.89387 -81.70309 13798 ft 372 kts
2026-05-06 16:10 24.91972 -81.70104 14405 ft 379 kts
2026-05-06 16:10 24.94628 -81.69894 15102 ft 382 kts
2026-05-06 16:10 24.97301 -81.69683 15735 ft 386 kts
2026-05-06 16:10 24.99985 -81.69471 16431 ft 388 kts
2026-05-06 16:11 25.02667 -81.69259 17022 ft 392 kts
2026-05-06 16:11 25.05412 -81.69042 17618 ft 395 kts
2026-05-06 16:11 25.08155 -81.68824 18172 ft 400 kts
2026-05-06 16:11 25.10962 -81.68602 18770 ft 403 kts
2026-05-06 16:12 25.13791 -81.68378 19365 ft 407 kts
2026-05-06 16:12 25.16621 -81.68154 19968 ft 410 kts
2026-05-06 16:12 25.19475 -81.67928 20546 ft 413 kts
2026-05-06 16:12 25.22337 -81.67702 21064 ft 418 kts
2026-05-06 16:13 25.25240 -81.67471 21641 ft 420 kts
2026-05-06 16:13 25.28184 -81.67238 22191 ft 424 kts
2026-05-06 16:13 25.31130 -81.67004 22729 ft 427 kts
2026-05-06 16:13 25.34143 -81.66765 23222 ft 432 kts
2026-05-06 16:14 25.37123 -81.66528 23778 ft 434 kts
2026-05-06 16:14 25.40157 -81.66287 24225 ft 439 kts
2026-05-06 16:14 25.43219 -81.66044 24740 ft 442 kts
2026-05-06 16:14 25.46321 -81.65797 25265 ft 445 kts
2026-05-06 16:15 25.49422 -81.65550 25706 ft 449 kts
2026-05-06 16:15 25.52556 -81.65299 26194 ft 452 kts
2026-05-06 16:15 25.55683 -81.65049 26649 ft 455 kts
2026-05-06 16:15 25.58852 -81.64796 27259 ft 454 kts
2026-05-06 16:16 25.61973 -81.64544 27954 ft 451 kts
2026-05-06 16:16 25.65121 -81.64291 28561 ft 450 kts
2026-05-06 16:16 25.68240 -81.64040 29132 ft 450 kts
2026-05-06 16:16 25.71361 -81.63789 29707 ft 448 kts
2026-05-06 16:17 25.74439 -81.63541 30308 ft 446 kts
2026-05-06 16:17 25.77526 -81.63292 30946 ft 443 kts
2026-05-06 16:17 25.80616 -81.63048 31498 ft 440 kts 359°
2026-05-06 16:17 25.83669 -81.62967 32007 ft 437 kts 354°
2026-05-06 16:18 25.86669 -81.63216 32543 ft 431 kts 348°
2026-05-06 16:18 25.89621 -81.63827 33007 ft 428 kts 342°
2026-05-06 16:18 25.92460 -81.64789 33405 ft 427 kts 336°
2026-05-06 16:18 25.95168 -81.66092 33799 ft 426 kts 330°
2026-05-06 16:19 25.97731 -81.67733 34249 ft 424 kts 324°
2026-05-06 16:19 26.00091 -81.69679 34785 ft 420 kts 319°
2026-05-06 16:19 26.02253 -81.71835 35260 ft 419 kts 315°
2026-05-06 16:19 26.04385 -81.74078 35709 ft 418 kts 315°
2026-05-06 16:20 26.06522 -81.76254 36067 ft 419 kts 317°
2026-05-06 16:20 26.08770 -81.78407 36077 ft 418 kts 319°
2026-05-06 16:20 26.13357 -81.82438 36080 ft 425 kts 321°
2026-05-06 16:21 26.18146 -81.86394 36079 ft 425 kts 322°
2026-05-06 16:21 26.22928 -81.90263 36076 ft 424 kts 322°
2026-05-06 16:22 26.27745 -81.94151 36080 ft 425 kts 322°
2026-05-06 16:22 26.32503 -81.97997 36077 ft 424 kts 321°
2026-05-06 16:23 26.37310 -82.01892 36074 ft 425 kts 322°
2026-05-06 16:23 26.42089 -82.05770 36070 ft 425 kts 322°
2026-05-06 16:24 26.46871 -82.09653 36070 ft 425 kts 321°
2026-05-06 16:24 26.51683 -82.13567 36067 ft 427 kts 321°
2026-05-06 16:25 26.56475 -82.17469 36063 ft 426 kts 321°
2026-05-06 16:25 26.61259 -82.21368 36060 ft 424 kts 321°
2026-05-06 16:26 26.66028 -82.25259 36063 ft 425 kts 321°
2026-05-06 16:26 26.70814 -82.29168 36064 ft 424 kts 321°
2026-05-06 16:27 26.75468 -82.33186 36064 ft 423 kts 316°
2026-05-06 16:27 26.79584 -82.37866 36063 ft 420 kts 310°
2026-05-06 16:28 26.83359 -82.42876 36063 ft 420 kts 308°
2026-05-06 16:28 26.87048 -82.47941 36071 ft 419 kts 308°
2026-05-06 16:29 26.90737 -82.53010 36075 ft 420 kts 308°
2026-05-06 16:29 26.94424 -82.58057 36078 ft 420 kts 308°
2026-05-06 16:30 26.97523 -82.62291 36078 ft 419 kts 308°
2026-05-06 16:30 27.01836 -82.68182 36080 ft 419 kts 307°
2026-05-06 16:31 27.05528 -82.73227 36080 ft 419 kts 307°
2026-05-06 16:31 27.09244 -82.78311 36085 ft 420 kts 308°
2026-05-06 16:32 27.12580 -82.83643 36079 ft 417 kts 297°
2026-05-06 16:32 27.14583 -82.89745 36088 ft 419 kts 285°
2026-05-06 16:33 27.15893 -82.96123 36087 ft 419 kts 283°
2026-05-06 16:34 27.17636 -83.05688 36090 ft 417 kts 283°
2026-05-06 16:34 27.18822 -83.12103 36086 ft 418 kts 283°
2026-05-06 16:35 27.20020 -83.18476 36088 ft 417 kts 283°
2026-05-06 16:35 27.21217 -83.24820 36087 ft 418 kts 283°
2026-05-06 16:36 27.22424 -83.31202 36083 ft 418 kts 283°
2026-05-06 16:36 27.23625 -83.37569 36079 ft 417 kts 283°
2026-05-06 16:37 27.24825 -83.43951 36078 ft 418 kts 283°
2026-05-06 16:37 27.26028 -83.50361 36070 ft 418 kts 283°
2026-05-06 16:38 27.27222 -83.56737 36071 ft 418 kts 283°
2026-05-06 16:38 27.28419 -83.63139 36073 ft 418 kts 283°
2026-05-06 16:39 27.29607 -83.69522 36065 ft 419 kts 282°
2026-05-06 16:39 27.30803 -83.75970 36069 ft 418 kts 282°
2026-05-06 16:40 27.31990 -83.82388 36060 ft 418 kts 282°
2026-05-06 16:40 27.33168 -83.88767 36060 ft 417 kts 282°
2026-05-06 16:41 27.34353 -83.95197 36058 ft 419 kts 282°
2026-05-06 16:41 27.35523 -84.01566 36057 ft 418 kts 282°
2026-05-06 16:42 27.36690 -84.07944 36054 ft 418 kts 282°
2026-05-06 16:42 27.37860 -84.14348 36058 ft 418 kts 282°
2026-05-06 16:43 27.39025 -84.20743 36054 ft 418 kts 282°
2026-05-06 16:43 27.40194 -84.27175 36052 ft 419 kts 282°
2026-05-06 16:44 27.41355 -84.33584 36057 ft 419 kts 282°
2026-05-06 16:44 27.42511 -84.39995 36055 ft 420 kts 282°
2026-05-06 16:45 27.43667 -84.46409 36053 ft 419 kts 282°
2026-05-06 16:45 27.44820 -84.52831 36053 ft 419 kts 282°
2026-05-06 16:46 27.45970 -84.59248 36055 ft 417 kts 282°
2026-05-06 16:46 27.47109 -84.65624 36052 ft 419 kts 281°
2026-05-06 16:47 27.48257 -84.72070 36051 ft 418 kts 281°
2026-05-06 16:47 27.49390 -84.78451 36050 ft 418 kts 281°
2026-05-06 16:48 27.50529 -84.84879 36051 ft 418 kts 281°
2026-05-06 16:48 27.51663 -84.91307 36050 ft 419 kts 281°
2026-05-06 16:49 27.52788 -84.97694 36049 ft 418 kts 281°
2026-05-06 16:49 27.53919 -85.04127 36051 ft 419 kts 281°
2026-05-06 16:50 27.55046 -85.10561 36050 ft 419 kts 281°
2026-05-06 16:50 27.56167 -85.16980 36049 ft 418 kts 281°
2026-05-06 16:51 27.57292 -85.23442 36050 ft 419 kts 281°
2026-05-06 16:51 27.58433 -85.29871 36049 ft 418 kts 282°
2026-05-06 16:52 27.60203 -85.36077 36051 ft 419 kts 293°
2026-05-06 16:52 27.62981 -85.41859 36051 ft 420 kts 298°
2026-05-06 16:53 27.66046 -85.47450 36050 ft 420 kts 300°
2026-05-06 16:53 27.69153 -85.53060 36049 ft 421 kts 299°
2026-05-06 16:54 27.72225 -85.58682 36050 ft 422 kts 299°
2026-05-06 16:54 27.75269 -85.64318 36050 ft 421 kts 299°
2026-05-06 16:55 27.78319 -85.69999 36050 ft 421 kts 298°
2026-05-06 16:55 27.81333 -85.75630 36050 ft 420 kts 298°
2026-05-06 16:56 27.84365 -85.81306 36049 ft 421 kts 298°
2026-05-06 16:56 27.87359 -85.86919 36050 ft 420 kts 298°
2026-05-06 16:57 27.90378 -85.92588 36050 ft 421 kts 298°
2026-05-06 16:57 27.93394 -85.98259 36050 ft 421 kts 298°
2026-05-06 16:58 27.96401 -86.03919 36049 ft 421 kts 298°
2026-05-06 16:58 27.99422 -86.09611 36047 ft 419 kts 298°
2026-05-06 16:59 28.02408 -86.15248 36045 ft 418 kts 298°
2026-05-06 16:59 28.05393 -86.20888 36045 ft 419 kts 298°
2026-05-06 17:00 28.08391 -86.26564 36046 ft 419 kts 298°
2026-05-06 17:00 28.11385 -86.32238 36045 ft 420 kts 298°
2026-05-06 17:01 28.14381 -86.37923 36044 ft 419 kts 298°
2026-05-06 17:01 28.17354 -86.43572 36042 ft 419 kts 297°
2026-05-06 17:02 28.20345 -86.49262 36041 ft 419 kts 297°
2026-05-06 17:02 28.23323 -86.54936 36041 ft 418 kts 297°
2026-05-06 17:03 28.26297 -86.60610 36041 ft 419 kts 297°
2026-05-06 17:03 28.29251 -86.66253 36039 ft 418 kts 297°
2026-05-06 17:04 28.31846 -86.72136 36041 ft 415 kts 290°
2026-05-06 17:04 28.33826 -86.78284 36039 ft 414 kts 286°
2026-05-06 17:05 28.35622 -86.84480 36038 ft 414 kts 285°
2026-05-06 17:05 28.37395 -86.90661 36035 ft 414 kts 286°
2026-05-06 17:06 28.39191 -86.96888 36034 ft 414 kts 286°
2026-05-06 17:06 28.40992 -87.03108 36034 ft 414 kts 286°
2026-05-06 17:07 28.42786 -87.09292 36038 ft 414 kts 286°
2026-05-06 17:07 28.44586 -87.15505 36037 ft 414 kts 286°
2026-05-06 17:08 28.46382 -87.21709 36034 ft 414 kts 286°
2026-05-06 17:08 28.48170 -87.27902 36031 ft 414 kts 286°
2026-05-06 17:09 28.49960 -87.34111 36029 ft 413 kts 286°
2026-05-06 17:09 28.51744 -87.40314 36029 ft 413 kts 286°
2026-05-06 17:10 28.53521 -87.46506 36029 ft 413 kts 286°
2026-05-06 17:10 28.55302 -87.52721 36029 ft 414 kts 286°
2026-05-06 17:11 28.57077 -87.58926 36029 ft 413 kts 286°
2026-05-06 17:11 28.58847 -87.65125 36029 ft 414 kts 285°
2026-05-06 17:12 28.60619 -87.71345 36028 ft 413 kts 285°
2026-05-06 17:12 28.62391 -87.77577 36024 ft 413 kts 285°
2026-05-06 17:13 28.64143 -87.83752 36022 ft 413 kts 285°
2026-05-06 17:13 28.65910 -87.89990 36023 ft 412 kts 285°
2026-05-06 17:14 28.67660 -87.96184 36023 ft 412 kts 285°
2026-05-06 17:14 28.69408 -88.02385 36023 ft 412 kts 285°
2026-05-06 17:15 28.71163 -88.08615 36018 ft 413 kts 285°
2026-05-06 17:15 28.72924 -88.14881 36021 ft 412 kts 285°
2026-05-06 17:16 28.74675 -88.21121 36019 ft 411 kts 285°
2026-05-06 17:16 28.76411 -88.27320 36020 ft 411 kts 285°
2026-05-06 17:17 28.78151 -88.33553 36018 ft 412 kts 285°
2026-05-06 17:17 28.79880 -88.39751 36016 ft 411 kts 285°
2026-05-06 17:18 28.81619 -88.45999 36016 ft 411 kts 285°
2026-05-06 17:18 28.83333 -88.52172 36017 ft 410 kts 285°
2026-05-06 17:19 28.85066 -88.58427 36015 ft 410 kts 285°
2026-05-06 17:19 28.86778 -88.64579 36012 ft 411 kts 286°
2026-05-06 17:20 28.89117 -88.70593 36012 ft 417 kts 298°
2026-05-06 17:20 28.92809 -88.75774 36012 ft 424 kts 307°
2026-05-06 17:21 28.96906 -88.80577 36013 ft 423 kts 309°
2026-05-06 17:21 29.01080 -88.85366 36011 ft 424 kts 308°
2026-05-06 17:22 29.05222 -88.90168 36009 ft 424 kts 308°
2026-05-06 17:22 29.09359 -88.95022 36004 ft 424 kts 308°
2026-05-06 17:23 29.13450 -88.99853 36005 ft 424 kts 308°
2026-05-06 17:23 29.17527 -89.04685 36004 ft 421 kts 308°
2026-05-06 17:24 29.21626 -89.09557 36002 ft 423 kts 308°
2026-05-06 17:24 29.25712 -89.14418 35999 ft 422 kts 308°
2026-05-06 17:25 29.29783 -89.19263 35999 ft 421 kts 307°
2026-05-06 17:25 29.33835 -89.24096 35995 ft 422 kts 307°
2026-05-06 17:26 29.37935 -89.28992 35993 ft 421 kts 307°
2026-05-06 17:26 29.41993 -89.33844 35995 ft 421 kts 307°
2026-05-06 17:27 29.46055 -89.38707 35995 ft 421 kts 307°
2026-05-06 17:27 29.50137 -89.43601 35983 ft 422 kts 307°
2026-05-06 17:28 29.54192 -89.48470 35983 ft 420 kts 307°
2026-05-06 17:28 29.57871 -89.53632 35973 ft 415 kts 300°
2026-05-06 17:29 29.61144 -89.59090 35976 ft 413 kts 298°
2026-05-06 17:29 29.64307 -89.64574 35969 ft 411 kts 298°
2026-05-06 17:30 29.67488 -89.70082 35971 ft 411 kts 298°
2026-05-06 17:30 29.70662 -89.75549 35979 ft 412 kts 298°
2026-05-06 17:31 29.73906 -89.81038 35976 ft 412 kts 298°
2026-05-06 17:31 29.77229 -89.86414 35977 ft 413 kts 300°
2026-05-06 17:32 29.80658 -89.91723 35980 ft 414 kts 301°
2026-05-06 17:32 29.84191 -89.96973 35974 ft 413 kts 302°
2026-05-06 17:33 29.87802 -90.02127 35974 ft 412 kts 303°
2026-05-06 17:33 29.91505 -90.07205 35974 ft 416 kts 304°
2026-05-06 17:34 29.95299 -90.12221 35973 ft 415 kts 304°
2026-05-06 17:34 29.99181 -90.17171 35967 ft 416 kts 305°
2026-05-06 17:35 30.03134 -90.22047 35968 ft 416 kts 306°
2026-05-06 17:35 30.07166 -90.26861 35970 ft 418 kts 307°
2026-05-06 17:36 30.13368 -90.33923 35966 ft 417 kts 309°
2026-05-06 17:36 30.17605 -90.38532 35963 ft 419 kts 309°
2026-05-06 17:37 30.21940 -90.43066 35958 ft 420 kts 310°
2026-05-06 17:37 30.26364 -90.47516 35948 ft 420 kts 311°
2026-05-06 17:38 30.30879 -90.51882 35950 ft 422 kts 313°
2026-05-06 17:38 30.35436 -90.56193 35940 ft 417 kts 308°
2026-05-06 17:39 30.37145 -90.58769 35953 ft 401 kts 293°
2026-05-06 17:39 30.38382 -90.61713 35939 ft 400 kts 289°
2026-05-06 17:39 30.40553 -90.67612 35934 ft 397 kts 287°
2026-05-06 17:40 30.42691 -90.73490 35935 ft 397 kts 288°
2026-05-06 17:40 30.44887 -90.79384 35943 ft 398 kts 288°
2026-05-06 17:41 30.47105 -90.85255 35936 ft 397 kts 288°
2026-05-06 17:41 30.49329 -90.91116 35942 ft 398 kts 288°
2026-05-06 17:42 30.51557 -90.96993 35945 ft 396 kts 288°
2026-05-06 17:42 30.53779 -91.02864 35943 ft 398 kts 288°
2026-05-06 17:43 30.56010 -91.08762 35953 ft 396 kts 288°
2026-05-06 17:43 30.58197 -91.14554 35952 ft 396 kts 288°
2026-05-06 17:44 30.60382 -91.20358 35947 ft 397 kts 288°
2026-05-06 17:44 30.62598 -91.26247 35950 ft 397 kts 288°
2026-05-06 17:45 30.64761 -91.32008 35944 ft 395 kts 288°
2026-05-06 17:45 30.66950 -91.37844 35946 ft 395 kts 288°
2026-05-06 17:46 30.68870 -91.42968 35943 ft 394 kts 288°